User: anonymous   Login
Location: Tyler Bend Campground
(35.9875°N, 92.7606°W)
Time: 01:34:29
(UTC-05:00)
Language:

Iridium 39 - Orbit

View from above orbital plane
View from above orbital plane
View from above satellite
View from above satellite

Ground track
Ground track

The orbit data is extracted from the following two-line orbital elements,

1 25042U 97069D   15114.52522482  .00000648  00000-0  22420-3 0  9997
2 25042 086.3995 350.1692 0002053 081.5288 278.6140 14.34231629913841
Epoch (UTC): 24 April 2015 12:36:19
Eccentricity: 0.0002053
inclination: 86.3995°
perigee height: 776 km
apogee height: 779 km
right ascension of ascending node: 350.1692°
argument of perigee: 81.5288°
revolutions per day: 14.34231629
mean anomaly at epoch: 278.6140°
orbit number at epoch: 91384

The dashed part of the orbit path shows where the satellite is in the earth's shadow,  

DLR